EW0538 Weather Reports


Display with metric or nautical units.
time (UTC)temp
F
wind
direction
speed
MPH
gust
MPH
rain 1hr
in
rain 24hr
in
rain mn
in
humidity
%
barometer
mb
20260508224745 73 262 2.0 11.0 0.00 0.00 0.00 14 1006.6
20260508223810 73 232 3.0 11.0 0.00 0.00 0.00 15 1006.8
20260508222746 72 183 1.0 6.0 0.00 0.00 0.00 13 1007.0
20260508221742 72 159 2.0 14.0 0.00 0.00 0.00 12 1007.1
20260508220716 73 191 3.0 14.0 0.00 0.00 0.00 13 1006.9
20260508215738 73 157 2.0 12.0 0.00 0.00 0.00 11 1007.2
20260508214728 73 220 4.0 11.0 0.00 0.00 0.00 13 1007.3
20260508213743 72 225 3.0 13.0 0.00 0.00 0.00 13 1007.4
20260508212805 73 153 4.0 13.0 0.00 0.00 0.00 13 1007.3
20260508211815 73 172 3.0 11.0 0.00 0.00 0.00 12 1007.6
20260508210825 73 219 4.0 11.0 0.00 0.00 0.00 13 1007.5
20260508205831 73 206 2.0 6.0 0.00 0.00 0.00 14 1007.8
20260508204832 73 137 4.0 9.0 0.00 0.00 0.00 12 1007.9
20260508203837 72 225 4.0 12.0 0.00 0.00 0.00 13 1008.1
20260508202814 72 190 3.0 12.0 0.00 0.00 0.00 12 1008.1
20260508201744 72 122 6.0 17.0 0.00 0.00 0.00 11 1008.3
20260508200752 72 207 5.0 17.0 0.00 0.00 0.00 11 1008.4
20260508195733 72 217 4.0 12.0 0.00 0.00 0.00 13 1008.6
20260508194706 71 186 6.0 14.0 0.00 0.00 0.00 13 1008.5
20260508193712 71 215 4.0 14.0 0.00 0.00 0.00 16 1008.7
20260508191550 71 205 4.0 12.0 0.00 0.00 0.00 16 1009.0
20260508190542 70 141 4.0 12.0 0.00 0.00 0.00 14 1009.3
20260508185516 70 225 3.0 10.0 0.00 0.00 0.00 15 1009.4
20260508184442 69 168 0.0 3.0 0.00 0.00 0.00 17 1009.8
20260508183451 69 176 0.0 4.0 0.00 0.00 0.00 21 1009.9
20260508182449 68 205 1.0 4.0 0.00 0.00 0.00 17 1010.3
20260508181444 68 173 0.0 5.0 0.00 0.00 0.00 22 1010.5
20260508175310 67 37 0.0 3.0 0.00 0.00 0.00 21 1011.2
20260508174309 68 34 0.0 2.0 0.00 0.00 0.00 22 1011.4
20260508173325 66 100 0.0 2.0 0.00 0.00 0.00 23 1011.5
20260508172301 66 290 0.0 2.0 0.00 0.00 0.00 25 1011.8
20260508170121 64 315 0.0 3.0 0.00 0.00 0.00 26 1012.2
20260508165059 63 209 0.0 3.0 0.00 0.00 0.00 26 1012.3
20260508162945 60 205 0.0 3.0 0.00 0.00 0.00 31 1012.7
20260508161948 59 264 0.0 1.0 0.00 0.00 0.00 32 1013.0
20260508160955 58 180 0.0 2.0 0.00 0.00 0.00 32 1013.1
20260508160010 57 181 0.0 2.0 0.00 0.00 0.00 34 1013.4
20260508155024 56 205 0.0 3.0 0.00 0.00 0.00 36 1013.6
20260508153957 55 188 0.0 3.0 0.00 0.00 0.00 36 1013.9
20260508152958 54 192 0.0 3.0 0.00 0.00 0.00 39 1014.0
20260508151937 54 155 0.0 3.0 0.00 0.00 0.00 37 1014.3
20260508150919 53 231 1.0 2.0 0.00 0.00 0.00 39 1014.5
20260508145905 53 208 0.0 2.0 0.00 0.00 0.00 45 1014.7
20260508143754 50 179 0.0 0.0 0.00 0.00 0.00 45 1014.9
20260508142802 49 181 0.0 0.0 0.00 0.00 0.00 47 1015.0
20260508141742 47 193 0.0 1.0 0.00 0.00 0.00 50 1015.2
20260508140727 46 158 0.0 1.0 0.00 0.00 0.00 54 1015.3
20260508135748 45 124 0.0 0.0 0.00 0.00 0.00 55 1015.5
20260508134807 41 93 0.0 0.0 0.00 0.00 0.00 62 1015.5
20260508133803 39 91 0.0 0.0 0.00 0.00 0.00 64 1015.5
20260508132824 38 91 0.0 0.0 0.00 0.00 0.00 67 1015.5
20260508130645 36 91 0.0 0.0 0.00 0.00 0.00 71 1015.1
20260508125623 35 91 0.0 0.0 0.00 0.00 0.00 72 1015.0
20260508123456 33 91 0.0 0.0 0.00 0.00 0.00 72 1014.6
20260508122427 33 91 0.0 0.0 0.00 0.00 0.00 72 1014.6
20260508121416 33 91 0.0 0.0 0.00 0.00 0.00 71 1014.4
20260508115231 33 91 0.0 0.0 0.00 0.00 0.00 70 1013.9
20260508114222 34 91 0.0 0.0 0.00 0.00 0.00 70 1013.9
20260508112135 34 93 0.0 0.0 0.00 0.00 0.00 70 1013.7
20260508111126 34 92 0.0 0.0 0.00 0.00 0.00 69 1013.6
20260508110053 34 92 0.0 0.0 0.00 0.00 0.00 69 1013.4
20260508105055 35 92 0.0 0.0 0.00 0.00 0.00 69 1013.3
20260508104030 35 92 0.0 0.0 0.00 0.00 0.00 68 1013.2
20260508103040 35 92 0.0 0.0 0.00 0.00 0.00 68 1013.0
20260508102017 36 92 0.0 0.0 0.00 0.00 0.00 67 1012.9
20260508101012 36 92 0.0 0.0 0.00 0.00 0.00 68 1012.8
20260508095940 36 92 0.0 0.0 0.00 0.00 0.00 67 1012.7
20260508094940 36 92 0.0 0.0 0.00 0.00 0.00 67 1012.5
20260508093927 37 92 0.0 0.0 0.00 0.00 0.00 67 1012.5
20260508084857 37 148 0.0 0.0 0.00 0.00 0.00 90 1013.1
20260508083854 38 132 0.0 0.0 0.00 0.00 0.00 90 1013.1
20260508081746 38 132 0.0 0.0 0.00 0.00 0.00 89 1013.2
20260508080720 39 132 0.0 0.0 0.00 0.00 0.00 87 1013.1
20260508075700 40 133 0.0 0.0 0.00 0.00 0.00 86 1013.2
20260508074702 40 132 0.0 0.0 0.00 0.00 0.00 85 1013.2
20260508073716 41 132 0.0 0.0 0.00 0.00 0.00 83 1013.1
20260508071537 42 132 0.0 0.0 0.00 0.00 0.00 80 1013.3
20260508070534 42 133 0.0 0.0 0.00 0.00 0.00 82 1013.2
20260508065539 43 278 0.0 0.0 0.00 0.00 0.00 78 1013.3
20260508064540 44 278 0.0 0.0 0.00 0.00 0.00 76 1013.2
20260508061252 45 278 0.0 0.0 0.00 0.00 0.00 77 1013.3
20260508060314 44 148 0.0 0.0 0.00 0.00 0.00 77 1013.3
20260508055309 44 148 0.0 0.0 0.00 0.00 0.00 77 1013.3
20260508054313 44 148 0.0 0.0 0.00 0.00 0.00 78 1013.3
20260508052116 45 148 0.0 0.0 0.00 0.00 0.00 75 1013.4
20260508051050 46 148 0.0 0.0 0.00 0.00 0.00 72 1013.3
20260508050054 47 148 0.0 0.0 0.00 0.00 0.00 72 1013.4
20260508045032 47 148 0.0 0.0 0.00 0.00 0.00 69 1013.6
20260508044017 47 148 0.0 0.0 0.00 0.00 0.00 67 1013.5
20260508043015 47 49 0.0 0.0 0.00 0.00 0.00 67 1013.7
20260508042001 47 31 0.0 0.0 0.00 0.00 0.00 65 1013.4
20260508040941 47 32 0.0 0.0 0.00 0.00 0.00 67 1013.5
20260508035942 48 31 0.0 0.0 0.00 0.00 0.00 66 1013.5
20260508034935 49 32 0.0 0.0 0.00 0.00 0.00 63 1013.4
20260508033937 50 32 0.0 0.0 0.00 0.00 0.00 63 1013.4
20260508032957 51 141 0.0 0.0 0.00 0.00 0.00 62 1013.3
20260508031950 51 141 0.0 0.0 0.00 0.00 0.00 61 1013.1
20260508030917 52 141 0.0 0.0 0.00 0.00 0.00 58 1013.2
20260508025942 53 141 0.0 0.0 0.00 0.00 0.00 54 1012.9
20260508025000 54 141 0.0 0.0 0.00 0.00 0.00 51 1012.8
20260508023934 55 141 0.0 0.0 0.00 0.00 0.00 48 1012.7
20260508022939 56 145 0.0 0.0 0.00 0.00 0.00 48 1012.6
20260508022003 57 129 0.0 0.0 0.00 0.00 0.00 46 1012.6
20260508015914 59 351 0.0 2.0 0.00 0.00 0.00 40 1012.7
20260508014911 59 328 1.0 8.0 0.00 0.00 0.00 40 1012.6
20260508013840 60 336 4.0 9.0 0.00 0.00 0.00 39 1012.4
20260508012858 60 341 3.0 10.0 0.00 0.00 0.00 38 1012.4
20260508010801 61 357 3.0 9.0 0.00 0.00 0.00 36 1012.5
20260508005801 62 8 3.0 9.0 0.00 0.00 0.00 34 1012.3
20260508004806 62 4 2.0 15.0 0.00 0.00 0.00 33 1012.3
20260508003755 63 34 3.0 15.0 0.00 0.00 0.00 31 1012.4
20260508002810 63 342 4.0 9.0 0.00 0.00 0.00 30 1012.3
20260508001815 63 314 3.0 10.0 0.00 0.00 0.00 32 1012.2
20260508000825 64 354 3.0 13.0 0.00 0.00 0.00 31 1012.3
20260507234700 64 6 1.0 4.0 0.00 0.00 0.00 32 1012.1
20260507233635 64 20 1.0 6.0 0.00 0.00 0.00 31 1012.2
20260507232640 65 250 1.0 6.0 0.00 0.00 0.00 31 1012.4
20260507231631 65 25 0.0 0.0 0.00 0.00 0.00 30 1012.5
20260507230645 65 274 0.0 6.0 0.00 0.00 0.00 30 1012.6
20260507225705 65 4 1.0 1.0 0.00 0.00 0.00 32 1012.6